Tracking 18942 objects as of 17-Jan-2018
HD Live streaming from Space Station
objects crossing your sky now

CZ-4B DEB

Track CZ-4B DEB now!
10-day predictions


NORAD ID: 36290
Int'l Code: 2008-053L
Perigee: 565.3 km
Apogee: 593.8 km
Inclination: 97.6 °
Period: 96.1 minutes
Semi major axis: 6950 km
RCS: 0.0218 m2 (small)
Launch date: October 25, 2008
Source: People's Republic of China (PRC)
Launch site: Taiyaun Space Center, China (TSC)

Note: This is SATELLITE DEBRIS
aabbcc
Your satellite tracking list
Your tracking list is empty




NASA's NSSDC Master Catalog

Two Line Element Set (TLE):
1 36290U 08053L   18016.73882433 -.00000535 +00000-0 -40038-4 0  9994
2 36290 097.6131 005.0061 0020547 172.5461 187.6072 14.98214992268124
Source of the keplerian elements: AFSPC